RED64 KUKT-ZZZZ

Flight info

Callsign RED64
Flight time N/A
Altitude 1500
Route DCT
Aircraft C172/L-S/L

Departure

Time 2026-05-04 05:38
Airport Quakertown Airport (KUKT)

Arrival

Time N/A
Airport ZZZZ
Time Latitude Longitude Altitude Speed Heading
2026-05-04 05:06 40.43548 -75.38012 504 ft 0 kts 302°
2026-05-04 05:31 40.43549 -75.38015 504 ft 4 kts 295°
2026-05-04 05:31 40.43544 -75.38054 505 ft 4 kts 213°
2026-05-04 05:32 40.43526 -75.37922 503 ft 28 kts 98°
2026-05-04 05:32 40.43507 -75.37743 501 ft 1 kts 101°
2026-05-04 05:32 40.43494 -75.37656 500 ft 10 kts 103°
2026-05-04 05:33 40.43481 -75.37627 499 ft 2 kts 153°
2026-05-04 05:34 40.43462 -75.37629 494 ft 0 kts 210°
2026-05-04 05:34 40.43462 -75.37630 494 ft 0 kts 210°
2026-05-04 05:34 40.43461 -75.37630 495 ft 0 kts 210°
2026-05-04 05:36 40.43456 -75.37634 499 ft 3 kts 210°
2026-05-04 05:36 40.43453 -75.37672 499 ft 11 kts 282°
2026-05-04 05:36 40.43454 -75.37685 499 ft 0 kts 281°
2026-05-04 05:36 40.43482 -75.37910 504 ft 52 kts 280°
2026-05-04 05:37 40.43545 -75.38534 584 ft 78 kts 268°
2026-05-04 05:37 40.43521 -75.39260 807 ft 82 kts 263°
2026-05-04 05:37 40.43434 -75.39984 1065 ft 78 kts 251°
2026-05-04 05:38 40.42599 -75.39638 1353 ft 100 kts 125°
2026-05-04 05:38 40.42329 -75.38782 1497 ft 104 kts 109°
2026-05-04 05:38 40.42219 -75.37799 1522 ft 113 kts 97°
2026-05-04 05:38 40.42228 -75.36753 1578 ft 115 kts 84°
2026-05-04 05:39 40.42311 -75.35700 1607 ft 118 kts 95°
2026-05-04 05:39 40.42911 -75.33962 1473 ft 111 kts 348°
2026-05-04 05:39 40.43352 -75.34531 1369 ft 96 kts 268°
2026-05-04 05:40 40.43337 -75.36501 702 ft 99 kts 276°
2026-05-04 05:40 40.43415 -75.37308 550 ft 79 kts 276°
2026-05-04 05:40 40.43478 -75.37911 505 ft 44 kts 279°
2026-05-04 05:41 40.43508 -75.38143 507 ft 19 kts 279°
2026-05-04 05:41 40.43526 -75.38290 510 ft 14 kts 280°
2026-05-04 05:41 40.43541 -75.38390 511 ft 8 kts 292°
2026-05-04 05:41 40.43565 -75.38407 511 ft 0 kts
2026-05-04 05:42 40.43566 -75.38407 511 ft 1 kts
2026-05-04 05:42 40.43576 -75.38349 511 ft 13 kts 96°
2026-05-04 05:42 40.43557 -75.38187 509 ft 21 kts 99°
2026-05-04 05:42 40.43545 -75.38042 505 ft 6 kts 44°
2026-05-04 05:43 40.43548 -75.38039 505 ft 0 kts 27°